Regional Weather Roundup
Issued by NWS

Current Version | Previous Version | Text Only | Print | Product List | Glossary On
Versions: 1 2 3 4 5 6 7 8 9 10 11 12 13 14 15 16 17 18 19 20 21 22 23 24 25 26 27 28 29 30 31 32 33 34 35 36 37 38 39 40 41 42 43 44 45 46 47 48 49 50
000
ASUS43 KOAX 022210
RWRNE

WEATHER ROUNDUP FOR NEBRASKA
NATIONAL WEATHER SERVICE OMAHA NE
400 PM CST FRI DEC 02 2016

NOTES: SATELLITE DATA IS BEING USED TO AUGMENT CLOUD COVER ABOVE
       12000 FEET.
       "FAIR" INDICATES FEW OR NO CLOUDS BELOW 12,000 FEET WITH NO
       SIGNIFICANT WEATHER AND/OR OBSTRUCTIONS TO VISIBILITY.

  * THESE STATIONS DO NOT REPORT WEATHER SUCH AS RAIN...SNOW OR FOG.

NEZ001>004-019>022-054>056-022300-
NEBRASKA PANHANDLE

CITY           SKY/WX    TMP DP  RH WIND       PRES   REMARKS
SCOTTSBLUFF    CLOUDY    41  19  41 CALM      30.18F
ALLIANCE       MOSUNNY   42  19  39 N6        30.17S
CHADRON        PTSUNNY   41  20  43 CALM      30.18S
KIMBALL        CLOUDY    36  25  64 S7        30.18S WCI  31
SIDNEY         MOSUNNY   38  22  52 SW5       30.20S WCI  34
$$

NEZ057>060-069>072-079>082-022300-
SOUTHWEST NEBRASKA

CITY           SKY/WX    TMP DP  RH WIND       PRES   REMARKS
NORTH PLATTE   SUNNY     41  20  43 CALM      30.24S
IMPERIAL       CLOUDY    42  23  46 CALM      30.23S
LEXINGTON      SUNNY     38  26  61 SW3       30.27R
MCCOOK         CLOUDY    42  24  49 CALM      30.25F
OGALLALA       MOSUNNY   43  24  46 W5        30.22S
$$

NEZ005>010-023>029-035>040-094-022300-
NORTH CENTRAL NEBRASKA

CITY           SKY/WX    TMP DP  RH WIND       PRES   REMARKS
VALENTINE      CLEAR     41  25  53 NW5       30.22S
AINSWORTH      CLEAR     41  26  54 N8        30.22S
BROKEN BOW     CLEAR     43  23  45 SW5       30.23R
O`NEILL        CLEAR     37  27  67 CALM      30.26S
ORD            CLEAR     41  21  44 CALM      30.25S
THEDFORD       CLEAR     44  21  39 CALM      30.22R
$$

NEZ041-046>049-061>064-073>077-083>087-022300-
SOUTH CENTRAL NEBRASKA

CITY           SKY/WX    TMP DP  RH WIND       PRES   REMARKS
GRAND ISLAND   CLEAR     41  25  53 NW5       30.28R
AURORA         PTCLDY    40  25  54 CALM      30.27S
HASTINGS       CLEAR     39  25  57 N5        30.28R
HEBRON         CLOUDY    42  26  52 CALM      30.29R
HOLDREGE       MOSUNNY   39  25  56 CALM      30.27R
KEARNEY *      CLEAR     39  23  52 CALM      30.27R
YORK           CLOUDY    41  27  56 NW6       30.28R
$$

NEZ011>018-030>034-042>045-022300-
NORTHEAST NEBRASKA

CITY           SKY/WX    TMP DP  RH WIND       PRES   REMARKS
NORFOLK        CLOUDY    34  25  69 N7        30.29R WCI  28
ALBION         CLEAR     39  26  60 NE3       30.27S
BLAIR          PTCLDY    38  29  69 W5        30.28S WCI  35
FREMONT        MOCLDY    38  30  73 N3        30.30S
TEKAMAH        CLOUDY    38  29  70 W9        30.30S WCI  31
WAYNE          CLOUDY    36  28  75 NW6       30.29S WCI  31
$$

NEZ050>053-065>068-078-088>093-022300-
SOUTHEAST NEBRASKA

CITY           SKY/WX    TMP DP  RH WIND       PRES   REMARKS
LINCOLN        CLEAR     43  27  53 N7        30.30R
OMAHA EPPLEY   MOCLDY    39  29  67 N9        30.30S WCI  33
BEATRICE       CLEAR     43  28  55 NW5       30.28R
FALLS CITY       N/A    N/A N/A N/A MISG      30.28S
NEBRASKA CITY  CLEAR     42  25  50 N5        30.28S
PLATTSMOUTH    CLEAR     41  26  53 N5        30.28F
$$

NEZ044-045-051>053-067-022300-
OMAHA AREA

CITY           SKY/WX    TMP DP  RH WIND       PRES   REMARKS
OMAHA EPPLEY   MOCLDY    39  29  67 N9        30.30S WCI  33
BLAIR          PTCLDY    38  29  69 W5        30.28S WCI  35
FREMONT        MOCLDY    38  30  73 N3        30.30S
MILLARD        PTCLDY    42  29  60 N7        30.29F
OFFUTT AFB     CLEAR     39  30  69 N7        30.29R WCI  34
PLATTSMOUTH    CLEAR     41  26  53 N5        30.28F
WAHOO          FAIR      40  28  60 N5        30.29R
$$



USA.gov is the U.S. government's official web portal to all federal, state and local government web resources and services.